TimeEST,TemperatureF,Dew PointF,Humidity,Sea Level PressureIn,VisibilityMPH,Wind Direction,Wind SpeedMPH,Gust SpeedMPH,PrecipitationIn,Events,Conditions,WindDirDegrees,DateUTC
12:23 AM,24.8,15.8,69,29.75,4.0,West,20.7,36.8,0.00,Snow,Light Snow,260,2013-02-20 05:23:00
12:48 AM,23.0,17.6,80,29.76,2.0,WSW,19.6,28.8,0.00,Snow,Light Snow,250,2013-02-20 05:48:00
12:54 AM,23.0,18.0,81,29.79,2.0,WSW,21.9,29.9,0.00,Snow,Light Snow,250,2013-02-20 05:54:00
1:17 AM,23.0,15.8,74,29.76,4.0,WSW,16.1,31.1,0.00,Snow,Light Snow,250,2013-02-20 06:17:00
1:54 AM,21.9,17.1,82,29.81,6.0,West,17.3,24.2,0.00,Snow,Light Snow,260,2013-02-20 06:54:00
2:54 AM,21.9,12.9,68,29.82,9.0,West,18.4,28.8,0.00,Snow,Light Snow,260,2013-02-20 07:54:00
3:54 AM,21.0,12.9,71,29.82,9.0,West,17.3,29.9,0.00,Snow,Light Snow,260,2013-02-20 08:54:00
4:54 AM,19.9,12.9,74,29.85,6.0,West,16.1,26.5,0.00,Snow,Light Snow,270,2013-02-20 09:54:00
5:54 AM,19.0,14.0,81,29.86,3.0,West,17.3,23.0,0.00,Snow,Light Snow,270,2013-02-20 10:54:00
6:54 AM,19.0,12.9,77,29.87,5.0,West,16.1,29.9,0.00,Snow,Light Snow,260,2013-02-20 11:54:00
7:54 AM,19.0,10.0,68,29.89,9.0,West,13.8,28.8,0.00,Snow,Light Snow,260,2013-02-20 12:54:00
8:54 AM,19.9,9.0,62,29.91,10.0,West,23.0,31.1,0.00,,Overcast,260,2013-02-20 13:54:00
9:54 AM,19.9,9.0,62,29.91,10.0,West,20.7,32.2,0.00,Snow,Light Snow,260,2013-02-20 14:54:00
10:54 AM,21.0,9.0,60,29.93,8.0,West,19.6,31.1,0.00,Snow,Light Snow,270,2013-02-20 15:54:00
11:54 AM,21.0,10.0,63,29.94,10.0,WSW,20.7,32.2,0.00,Snow,Light Snow,250,2013-02-20 16:54:00
12:54 PM,21.0,10.9,65,29.95,4.0,WSW,21.9,33.4,0.00,Snow,Light Snow,240,2013-02-20 17:54:00
1:20 PM,21.2,10.4,63,29.92,2.0,WSW,23.0,33.4,0.00,Snow,Light Snow,250,2013-02-20 18:20:00
1:22 PM,21.2,12.2,68,29.92,1.5,WSW,24.2,28.8,0.00,Snow,Light Snow,250,2013-02-20 18:22:00
1:33 PM,19.4,12.2,74,29.93,2.0,WSW,17.3,32.2,0.00,Snow,Light Snow,250,2013-02-20 18:33:00
1:48 PM,21.2,12.2,68,29.94,4.0,West,20.7,31.1,0.00,Snow,Light Snow,270,2013-02-20 18:48:00
1:54 PM,21.0,12.0,68,29.98,6.0,WSW,19.6,28.8,0.00,Snow,Light Snow,250,2013-02-20 18:54:00
2:54 PM,21.9,10.9,63,29.99,8.0,WSW,21.9,29.9,0.00,Snow,Light Snow,250,2013-02-20 19:54:00
3:54 PM,21.9,10.9,63,30.02,9.0,WSW,21.9,31.1,0.00,Snow,Light Snow,250,2013-02-20 20:54:00
4:54 PM,21.0,10.9,65,30.04,9.0,WSW,17.3,31.1,0.00,Snow,Light Snow,250,2013-02-20 21:54:00
5:44 PM,19.4,10.4,68,30.02,9.0,WSW,16.1,28.8,0.00,Snow,Light Snow,250,2013-02-20 22:44:00
5:54 PM,19.9,10.0,65,30.07,10.0,West,23.0,32.2,0.00,Snow,Light Snow,260,2013-02-20 22:54:00
6:54 PM,19.9,10.0,65,30.10,10.0,West,23.0,31.1,0.00,Snow,Light Snow,260,2013-02-20 23:54:00
7:25 PM,19.4,10.4,68,30.07,10.0,West,23.0,31.1,0.00,Snow,Light Snow,270,2013-02-21 00:25:00
7:54 PM,19.0,10.0,68,30.11,10.0,West,19.6,29.9,0.00,Snow,Light Snow,260,2013-02-21 00:54:00
8:54 PM,19.0,10.0,68,30.12,8.0,West,18.4,29.9,0.00,Snow,Light Snow,260,2013-02-21 01:54:00
9:19 PM,19.4,8.6,63,30.08,10.0,West,18.4,27.6,0.00,Snow,Light Snow,260,2013-02-21 02:19:00
9:54 PM,19.0,9.0,65,30.12,10.0,West,18.4,25.3,0.00,Snow,Light Snow,280,2013-02-21 02:54:00
10:54 PM,19.0,10.0,68,30.11,10.0,West,18.4,25.3,0.00,Snow,Light Snow,260,2013-02-21 03:54:00
11:54 PM,19.9,10.9,68,30.10,10.0,WSW,17.3,23.0,0.00,Snow,Light Snow,250,2013-02-21 04:54:00